Location: Newark
(39.0622°N, 106.5590°E)
Time: 22:26:30
(UTC+00:00)

UWE-3 - Visible Passes

Search period start: 21 February 2020 00:00
Search period end: 02 March 2020 00:00
Orbit: 585 x 682 km, 97.6° (Epoch: 21 February)

Date Brightness Start Highest point End Pass type
(mag) Time Alt. Az. Time Alt. Az. Time Alt. Az.
21 Feb ? 21:29:46 10° NE 21:33:26 23° E 21:37:06 10° SE visible
21 Feb ? 23:05:41 10° N 23:09:52 34° WNW 23:14:03 10° SW visible
22 Feb ? 21:50:49 10° NNE 21:55:10 38° E 21:59:30 10° SSE visible
23 Feb ? 22:12:11 10° NNE 22:16:50 66° E 22:21:28 10° S visible
24 Feb ? 21:00:44 10° ENE 21:01:35 10° E 21:02:24 10° E visible
24 Feb ? 22:33:46 10° N 22:38:27 72° WNW 22:43:04 10° SSW visible
25 Feb ? 21:20:11 10° NE 21:23:24 18° E 21:26:37 10° SE visible
25 Feb ? 22:55:34 10° N 22:59:58 42° WNW 23:04:21 10° SW visible
26 Feb ? 21:41:02 10° NE 21:45:10 30° E 21:49:16 10° SSE visible
27 Feb ? 22:02:17 10° NNE 22:06:52 52° E 22:11:23 10° S visible
28 Feb ? 22:23:47 10° NNE 22:28:29 90° NE 22:33:08 10° SSW visible
29 Feb ? 21:10:46 10° ENE 21:13:20 15° E 21:15:53 10° SE visible
29 Feb ? 22:45:29 10° N 22:50:03 53° WNW 22:54:32 10° SSW visible
01 Mar ? 21:31:19 10° NE 21:35:08 24° E 21:38:54 10° SSE visible
